When you browse on this site, cookies collect data to enhance your experience and personalize the content and advertising you see.
Visit our Privacy Policy to learn more. By continuing to use the site, you agree to this use of cookies and data.
  • Em Portugal
  • Lista de países
  • Para 7 dias
  • Temperatura da água
  • Mapas de satélite
  • Mapa do tempo
  • Widgets de tempo
  • user-avatar
    Iniciar Sessão

    Previsão horária em Shumen

    Hoje, 18 Junho, Terça-feira

    Tempo Temperatura Precipitação Vento Pressão Humidade
    00:00 +18°C° 0 mm 0 m/s 729 mmHg 84%
    01:00 +19°C° 0 mm 1 m/s 729 mmHg 83%
    02:00 +19°C° 0 mm 1 m/s 729 mmHg 82%
    03:00 +19°C° 0 mm 1 m/s 729 mmHg 83%
    04:00 +18°C° 0 mm 1 m/s 729 mmHg 83%
    05:00 +18°C° 0 mm 1 m/s 729 mmHg 84%
    06:00 +19°C° 0 mm 2 m/s 729 mmHg 80%
    07:00 +21°C° 0 mm 2 m/s 730 mmHg 76%
    08:00 +24°C° 0 mm 2 m/s 730 mmHg 71%
    09:00 +25°C° 0.1 mm 3 m/s 730 mmHg 66%
    10:00 +27°C° 0.1 mm 3 m/s 731 mmHg 60%
    11:00 +28°C° 0.1 mm 4 m/s 731 mmHg 55%
    12:00 +28°C° 0.1 mm 4 m/s 731 mmHg 53%
    13:00 +29°C° 0.1 mm 4 m/s 730 mmHg 51%
    14:00 +29°C° 0.1 mm 4 m/s 730 mmHg 50%
    15:00 +29°C° 0.1 mm 3 m/s 730 mmHg 52%
    16:00 +28°C° 0.1 mm 3 m/s 730 mmHg 55%
    17:00 +28°C° 0.1 mm 3 m/s 729 mmHg 58%
    18:00 +26°C° 0 mm 2 m/s 729 mmHg 63%
    19:00 +24°C° 0 mm 2 m/s 729 mmHg 68%
    20:00 +22°C° 0 mm 1 m/s 729 mmHg 73%
    21:00 +21°C° 0 mm 1 m/s 729 mmHg 74%
    22:00 +18°C° 0 mm 0 m/s 729 mmHg 76%
    23:00 +17°C° 0 mm 0 m/s 729 mmHg 77%

    Amanhã, 19 Junho, Quarta-feira

    Tempo Temperatura Precipitação Vento Pressão Humidade
    00:00 +17°C° 0 mm 0 m/s 729 mmHg 79%
    01:00 +16°C° 0 mm 0 m/s 729 mmHg 82%
    02:00 +15°C° 0 mm 0 m/s 729 mmHg 84%
    03:00 +16°C° 0 mm 1 m/s 729 mmHg 84%
    04:00 +16°C° 0 mm 1 m/s 729 mmHg 84%
    05:00 +15°C° 0 mm 1 m/s 729 mmHg 84%
    06:00 +19°C° 0 mm 1 m/s 729 mmHg 77%
    07:00 +21°C° 0 mm 1 m/s 729 mmHg 70%
    08:00 +23°C° 0 mm 1 m/s 730 mmHg 63%
    09:00 +24°C° 0 mm 2 m/s 730 mmHg 59%
    10:00 +26°C° 0 mm 2 m/s 730 mmHg 54%
    11:00 +28°C° 0 mm 3 m/s 730 mmHg 50%
    12:00 +28°C° 0 mm 3 m/s 730 mmHg 48%
    13:00 +28°C° 0 mm 3 m/s 729 mmHg 46%
    14:00 +29°C° 0 mm 2 m/s 729 mmHg 45%
    15:00 +29°C° 0 mm 2 m/s 729 mmHg 48%
    16:00 +28°C° 0 mm 2 m/s 728 mmHg 51%
    17:00 +28°C° 0 mm 2 m/s 728 mmHg 54%
    18:00 +26°C° 0.1 mm 2 m/s 728 mmHg 61%
    19:00 +24°C° 0.1 mm 1 m/s 728 mmHg 67%
    20:00 +22°C° 0.1 mm 1 m/s 728 mmHg 74%
    21:00 +21°C° 0 mm 1 m/s 728 mmHg 76%
    22:00 +19°C° 0 mm 0 m/s 728 mmHg 77%
    23:00 +18°C° 0 mm 0 m/s 728 mmHg 79%

    Depois de amanhã, 20 Junho, Quinta-feira

    Tempo Temperatura Precipitação Vento Pressão Humidade
    00:00 +18°C° 0 mm 0 m/s 728 mmHg 82%
    01:00 +17°C° 0 mm 0 m/s 728 mmHg 84%
    02:00 +17°C° 0 mm 0 m/s 728 mmHg 87%
    03:00 +16°C° 0 mm 0 m/s 728 mmHg 86%
    04:00 +18°C° 0 mm 1 m/s 727 mmHg 86%
    05:00 +18°C° 0 mm 1 m/s 727 mmHg 86%
    06:00 +20°C° 0 mm 1 m/s 728 mmHg 80%
    07:00 +22°C° 0 mm 1 m/s 728 mmHg 73%
    08:00 +24°C° 0 mm 2 m/s 728 mmHg 67%
    09:00 +25°C° 0.3 mm 2 m/s 728 mmHg 65%
    10:00 +26°C° 0.3 mm 3 m/s 728 mmHg 63%
    11:00 +27°C° 0.3 mm 3 m/s 728 mmHg 61%
    12:00 +28°C° 0.3 mm 3 m/s 728 mmHg 59%
    13:00 +28°C° 0.3 mm 3 m/s 728 mmHg 56%
    14:00 +29°C° 0.3 mm 3 m/s 728 mmHg 54%
    15:00 +28°C° 0.3 mm 3 m/s 728 mmHg 57%
    16:00 +28°C° 0.3 mm 2 m/s 728 mmHg 60%
    17:00 +28°C° 0.3 mm 2 m/s 728 mmHg 63%
    18:00 +26°C° 0.4 mm 2 m/s 728 mmHg 69%
    19:00 +24°C° 0.4 mm 1 m/s 728 mmHg 76%
    20:00 +22°C° 0.4 mm 1 m/s 728 mmHg 82%
    21:00 +21°C° 0 mm 1 m/s 728 mmHg 83%
    22:00 +21°C° 0 mm 1 m/s 728 mmHg 83%
    23:00 +20°C° 0 mm 1 m/s 728 mmHg 84%

    21 Junho, Sexta-feira

    Tempo Temperatura Precipitação Vento Pressão Humidade
    00:00 +20°C° 0 mm 1 m/s 728 mmHg 84%
    01:00 +19°C° 0 mm 1 m/s 728 mmHg 85%
    02:00 +17°C° 0 mm 0 m/s 728 mmHg 86%
    03:00 +19°C° 0 mm 1 m/s 728 mmHg 87%
    04:00 +19°C° 0 mm 1 m/s 728 mmHg 87%
    05:00 +19°C° 0 mm 1 m/s 728 mmHg 88%
    06:00 +21°C° 0 mm 1 m/s 728 mmHg 83%
    07:00 +22°C° 0 mm 1 m/s 729 mmHg 78%
    08:00 +24°C° 0 mm 1 m/s 729 mmHg 73%
    09:00 +26°C° 0 mm 2 m/s 729 mmHg 68%
    10:00 +27°C° 0 mm 2 m/s 730 mmHg 62%
    11:00 +29°C° 0 mm 2 m/s 730 mmHg 57%
    12:00 +29°C° 0.2 mm 2 m/s 730 mmHg 55%
    13:00 +30°C° 0.2 mm 2 m/s 729 mmHg 52%
    14:00 +30°C° 0.2 mm 1 m/s 729 mmHg 50%
    15:00 +28°C° 0.7 mm 2 m/s 729 mmHg 59%
    16:00 +27°C° 0.7 mm 2 m/s 729 mmHg 67%
    17:00 +25°C° 0.7 mm 3 m/s 728 mmHg 76%
    18:00 +24°C° 0.5 mm 2 m/s 728 mmHg 78%
    19:00 +23°C° 0.5 mm 1 m/s 728 mmHg 79%
    20:00 +21°C° 0.5 mm 0 m/s 729 mmHg 80%
    21:00 +20°C° 0.2 mm 0 m/s 729 mmHg 81%
    22:00 +20°C° 0.2 mm 0 m/s 729 mmHg 82%
    23:00 +19°C° 0.2 mm 0 m/s 729 mmHg 83%

    22 Junho, Sábado

    Tempo Temperatura Precipitação Vento Pressão Humidade
    00:00 +19°C° 0.1 mm 0 m/s 729 mmHg 83%
    01:00 +21°C° 0.1 mm 1 m/s 729 mmHg 84%
    02:00 +20°C° 0.1 mm 1 m/s 729 mmHg 85%
    03:00 +20°C° 0 mm 1 m/s 729 mmHg 85%
    04:00 +20°C° 0 mm 1 m/s 729 mmHg 86%
    05:00 +20°C° 0 mm 1 m/s 729 mmHg 86%
    06:00 +22°C° 0 mm 1 m/s 729 mmHg 82%
    07:00 +23°C° 0 mm 1 m/s 730 mmHg 78%
    08:00 +25°C° 0 mm 1 m/s 730 mmHg 73%
    09:00 +26°C° 0 mm 1 m/s 730 mmHg 67%
    10:00 +28°C° 0 mm 2 m/s 730 mmHg 61%
    11:00 +29°C° 0 mm 2 m/s 730 mmHg 55%
    12:00 +30°C° 0 mm 1 m/s 730 mmHg 52%
    13:00 +31°C° 0 mm 1 m/s 730 mmHg 49%
    14:00 +31°C° 0 mm 1 m/s 730 mmHg 46%
    15:00 +31°C° 0 mm 1 m/s 730 mmHg 47%
    16:00 +31°C° 0 mm 1 m/s 730 mmHg 48%
    17:00 +31°C° 0 mm 1 m/s 730 mmHg 49%
    18:00 +28°C° 0.3 mm 1 m/s 730 mmHg 58%
    19:00 +26°C° 0.3 mm 1 m/s 730 mmHg 68%
    20:00 +21°C° 0.3 mm 0 m/s 730 mmHg 77%
    21:00 +21°C° 0.3 mm 0 m/s 730 mmHg 78%
    22:00 +20°C° 0.3 mm 0 m/s 730 mmHg 80%
    23:00 +20°C° 0.3 mm 0 m/s 730 mmHg 81%

    23 Junho, Domingo

    Tempo Temperatura Precipitação Vento Pressão Humidade
    00:00 +22°C° 0 mm 1 m/s 730 mmHg 81%
    01:00 +21°C° 0 mm 1 m/s 730 mmHg 82%
    02:00 +21°C° 0 mm 1 m/s 730 mmHg 82%
    03:00 +21°C° 0 mm 1 m/s 730 mmHg 82%
    04:00 +21°C° 0 mm 1 m/s 730 mmHg 83%
    05:00 +21°C° 0 mm 1 m/s 730 mmHg 83%
    06:00 +21°C° 0 mm 0 m/s 730 mmHg 78%
    07:00 +23°C° 0 mm 0 m/s 731 mmHg 73%
    08:00 +24°C° 0 mm 0 m/s 731 mmHg 69%
    09:00 +26°C° 0.4 mm 0 m/s 731 mmHg 62%
    10:00 +29°C° 0.4 mm 1 m/s 731 mmHg 55%
    11:00 +31°C° 0.4 mm 1 m/s 731 mmHg 49%
    12:00 +31°C° 0 mm 1 m/s 731 mmHg 48%
    13:00 +31°C° 0 mm 1 m/s 731 mmHg 46%
    14:00 +32°C° 0 mm 1 m/s 731 mmHg 45%
    15:00 +32°C° 0 mm 1 m/s 731 mmHg 47%
    16:00 +31°C° 0 mm 2 m/s 730 mmHg 49%
    17:00 +31°C° 0 mm 2 m/s 730 mmHg 51%
    18:00 +29°C° 0 mm 2 m/s 730 mmHg 56%
    19:00 +27°C° 0 mm 1 m/s 730 mmHg 61%
    20:00 +25°C° 0 mm 1 m/s 730 mmHg 67%
    21:00 +25°C° 0.1 mm 1 m/s 730 mmHg 69%
    22:00 +24°C° 0.1 mm 1 m/s 730 mmHg 72%
    23:00 +21°C° 0.1 mm 0 m/s 731 mmHg 74%
    Mostrar mais